2023/04/27 23:43:19+0000,-31.13,-40.79,-38.98,-41.37,-50.57,-52.41
2023/04/27 23:44:11+0000,-30.49,-39.21,-38.71,-41.49,-50.38,-52.27
2023/04/27 23:45:03+0000,-31.44,-39.68,-38.64,-40.64,-50.68,-51.99
2023/04/27 23:45:55+0000,-30.74,-41.01,-38.27,-41.23,-50.23,-53.35
2023/04/27 23:46:47+0000,-31.14,-40.68,-37.94,-41.69,-51.03,-53.28
2023/04/27 23:47:39+0000,-30.53,-40.89,-38.46,-41.93,-50.82,-53.37
2023/04/27 23:48:31+0000,-30.09,-41.02,-38.35,-40.96,-51.20,-52.39
2023/04/27 23:49:24+0000,-30.00,-39.64,-38.07,-41.89,-50.72,-52.53
2023/04/27 23:50:16+0000,-30.97,-40.34,-38.51,-41.89,-50.40,-52.93
2023/04/27 23:51:15+0000,-30.94,-40.74,-38.43,-42.42,-50.92,-53.31
2023/04/27 23:52:07+0000,-30.83,-40.04,-38.86,-42.04,-50.50,-52.65
2023/04/27 23:52:59+0000,-30.14,-40.09,-38.66,-42.10,-50.46,-52.41
2023/04/27 23:53:51+0000,-30.58,-42.04,-38.22,-41.85,-50.36,-53.21
2023/04/27 23:54:43+0000,-30.74,-40.24,-37.72,-42.42,-50.43,-53.16
2023/04/27 23:55:35+0000,-29.77,-40.51,-38.14,-41.98,-49.79,-52.99
2023/04/27 23:56:27+0000,-30.11,-40.95,-38.40,-42.59,-50.57,-53.25
2023/04/27 23:57:19+0000,-30.46,-40.33,-38.11,-42.76,-50.30,-52.96
2023/04/27 23:58:11+0000,-30.66,-40.57,-38.31,-42.41,-50.17,-52.73
2023/04/27 23:59:03+0000,-29.80,-39.99,-37.81,-42.30,-50.69,-52.77
2023/04/27 23:59:55+0000,-29.69,-40.86,-38.24,-42.65,-50.14,-52.72
2023/04/28 00:00:49+0000,-30.38,-40.34,-37.92,-41.52,-51.11,-53.56
2023/04/28 00:01:49+0000,-30.16,-40.14,-38.00,-42.01,-50.24,-53.41
2023/04/28 00:02:41+0000,-29.36,-40.34,-37.86,-42.26,-50.54,-52.97
2023/04/28 00:03:33+0000,-29.26,-40.94,-37.84,-42.63,-50.49,-52.95
2023/04/28 00:04:25+0000,-30.17,-40.67,-37.91,-42.70,-50.82,-53.53
2023/04/28 00:05:18+0000,-29.51,-41.14,-37.85,-42.44,-49.97,-53.25
2023/04/28 00:06:10+0000,-29.41,-40.06,-37.31,-42.15,-50.36,-51.98
2023/04/28 00:07:02+0000,-29.60,-40.19,-37.90,-42.17,-50.74,-53.25
2023/04/28 00:07:54+0000,-29.46,-40.41,-38.26,-43.12,-50.20,-52.58
2023/04/28 00:08:46+0000,-29.48,-41.06,-37.95,-42.74,-50.27,-52.68
2023/04/28 00:09:38+0000,-30.50,-40.86,-37.85,-42.27,-49.98,-52.47
2023/04/28 00:10:30+0000,-29.14,-40.82,-37.67,-42.34,-50.33,-52.63
2023/04/28 00:11:29+0000,-29.50,-39.47,-37.96,-40.51,-50.04,-52.05
2023/04/28 00:12:21+0000,-29.28,-39.85,-37.88,-41.93,-49.82,-53.06
2023/04/28 00:13:13+0000,-28.96,-40.54,-37.59,-42.17,-49.59,-52.24
2023/04/28 00:14:05+0000,-28.91,-39.90,-37.12,-42.98,-49.27,-52.75
2023/04/28 00:14:57+0000,-30.45,-40.03,-37.77,-43.29,-49.84,-52.64
2023/04/28 00:15:49+0000,-29.42,-40.48,-37.87,-43.11,-49.39,-52.48
2023/04/28 00:16:41+0000,-30.10,-41.42,-38.33,-42.07,-49.80,-52.96
2023/04/28 00:17:33+0000,-30.10,-41.35,-37.70,-42.77,-50.27,-53.26
2023/04/28 00:18:25+0000,-29.83,-41.19,-37.39,-42.13,-49.55,-52.95
2023/04/28 00:19:17+0000,-30.15,-40.83,-37.99,-42.22,-49.16,-53.08
2023/04/28 00:20:10+0000,-30.03,-42.16,-37.53,-41.48,-50.17,-53.24
2023/04/28 00:21:09+0000,-29.51,-40.44,-38.00,-42.24,-49.84,-53.40
2023/04/28 00:22:02+0000,-30.22,-41.17,-37.93,-41.49,-49.67,-53.43
2023/04/28 00:22:54+0000,-30.32,-42.16,-37.50,-41.86,-49.36,-53.64
2023/04/28 00:23:46+0000,-30.10,-41.44,-36.96,-42.69,-49.22,-53.44
2023/04/28 00:24:38+0000,-30.04,-40.57,-36.96,-42.82,-49.29,-53.83
2023/04/28 00:25:30+0000,-30.08,-40.58,-36.99,-42.42,-49.32,-53.78
2023/04/28 00:26:22+0000,-29.45,-41.41,-36.89,-41.85,-49.62,-53.40
2023/04/28 00:27:14+0000,-29.71,-41.36,-36.48,-42.75,-50.29,-53.90
2023/04/28 00:28:06+0000,-29.56,-41.59,-36.23,-42.07,-50.07,-53.53
2023/04/28 00:28:58+0000,-29.74,-41.37,-36.87,-42.00,-50.19,-53.94
2023/04/28 00:29:50+0000,-29.26,-41.93,-36.40,-43.21,-49.97,-53.44
2023/04/28 00:30:42+0000,-31.80,-41.77,-36.13,-42.85,-50.78,-53.71
2023/04/28 00:31:41+0000,-31.37,-40.43,-37.56,-42.89,-50.01,-53.82
2023/04/28 00:32:33+0000,-31.30,-40.81,-37.45,-42.49,-49.92,-53.71
2023/04/28 00:33:25+0000,-30.76,-41.92,-37.55,-42.20,-49.71,-53.94
2023/04/28 00:34:17+0000,-30.87,-41.06,-37.37,-41.52,-49.39,-53.80
2023/04/28 00:35:09+0000,-31.12,-40.86,-37.92,-41.93,-48.46,-54.18
2023/04/28 00:36:01+0000,-31.84,-41.33,-37.98,-42.37,-49.51,-53.75
2023/04/28 00:36:53+0000,-32.02,-41.31,-37.67,-41.23,-49.95,-53.63
2023/04/28 00:37:45+0000,-32.28,-40.46,-37.74,-42.19,-49.68,-53.93
2023/04/28 00:38:37+0000,-32.50,-42.08,-38.63,-42.28,-50.57,-53.78
2023/04/28 00:39:29+0000,-32.33,-40.54,-37.87,-41.78,-50.09,-53.76
2023/04/28 00:40:21+0000,-32.59,-40.84,-38.40,-42.43,-50.67,-53.93
2023/04/28 00:41:21+0000,-32.69,-41.49,-37.86,-42.96,-50.65,-53.65
2023/04/28 00:42:13+0000,-32.62,-40.23,-38.39,-42.43,-49.68,-53.69
2023/04/28 00:43:05+0000,-32.37,-40.34,-38.36,-42.77,-49.52,-53.69
2023/04/28 00:43:57+0000,-33.36,-39.12,-38.17,-42.18,-49.29,-54.12
2023/04/28 00:44:49+0000,-33.09,-39.59,-38.09,-42.63,-49.81,-53.81
2023/04/28 00:45:41+0000,-32.73,-39.57,-37.74,-42.96,-49.92,-54.35
2023/04/28 00:46:33+0000,-33.02,-40.77,-37.63,-42.45,-50.03,-53.88
2023/04/28 00:47:25+0000,-32.31,-41.60,-38.04,-42.07,-49.94,-54.03
2023/04/28 00:48:17+0000,-32.45,-41.19,-38.31,-42.59,-50.59,-54.09
2023/04/28 00:49:09+0000,-32.66,-39.94,-37.94,-42.72,-50.52,-53.92
2023/04/28 00:50:01+0000,-32.84,-39.99,-37.90,-42.34,-49.73,-53.69
2023/04/28 00:51:00+0000,-32.31,-40.32,-37.91,-42.07,-49.32,-54.16
2023/04/28 00:51:52+0000,-32.57,-41.81,-37.79,-41.84,-49.82,-54.59
2023/04/28 00:52:44+0000,-31.42,-40.43,-37.68,-42.74,-48.87,-53.43
2023/04/28 00:53:36+0000,-32.04,-40.82,-38.00,-42.69,-50.18,-53.65
2023/04/28 00:54:28+0000,-32.00,-40.81,-37.74,-42.22,-50.40,-54.30
2023/04/28 00:55:20+0000,-32.75,-40.36,-38.26,-42.48,-51.01,-53.73
2023/04/28 00:56:12+0000,-32.15,-41.10,-38.25,-42.35,-51.52,-53.75
2023/04/28 00:57:04+0000,-31.64,-40.29,-36.74,-42.52,-50.76,-54.16
2023/04/28 00:57:56+0000,-31.87,-41.08,-38.46,-42.24,-50.90,-53.86
2023/04/28 00:58:48+0000,-31.36,-41.04,-37.99,-42.08,-51.12,-53.60
2023/04/28 00:59:41+0000,-32.28,-40.29,-37.39,-42.79,-51.30,-53.95
2023/04/28 01:00:33+0000,-32.19,-40.84,-38.24,-42.35,-51.23,-54.46
2023/04/28 01:01:37+0000,-32.76,-40.71,-38.15,-42.15,-51.05,-53.85
2023/04/28 01:02:29+0000,-33.04,-41.64,-38.28,-42.05,-51.22,-53.73
2023/04/28 01:03:21+0000,-32.10,-40.65,-38.10,-41.95,-51.05,-54.19
2023/04/28 01:04:13+0000,-32.19,-40.39,-38.19,-41.93,-50.48,-54.21
2023/04/28 01:05:05+0000,-33.13,-40.42,-37.80,-42.52,-50.69,-53.90
2023/04/28 01:05:57+0000,-32.45,-40.97,-38.18,-41.37,-50.69,-54.09
2023/04/28 01:06:49+0000,-30.72,-41.24,-37.67,-41.49,-51.32,-54.02
2023/04/28 01:07:41+0000,-31.58,-40.69,-38.31,-41.74,-50.76,-53.64
2023/04/28 01:08:33+0000,-32.09,-40.37,-37.77,-43.46,-50.26,-53.75
2023/04/28 01:09:25+0000,-32.64,-39.34,-37.56,-42.76,-50.43,-54.27
2023/04/28 01:10:18+0000,-33.47,-40.64,-37.94,-43.12,-50.27,-53.73
2023/04/28 01:11:17+0000,-32.86,-43.33,-38.09,-42.42,-50.18,-53.85
2023/04/28 01:12:09+0000,-33.21,-42.41,-38.55,-41.66,-50.31,-54.32
2023/04/28 01:13:01+0000,-32.88,-41.89,-37.67,-41.83,-50.41,-53.62
2023/04/28 01:13:53+0000,-32.83,-41.59,-38.36,-40.42,-50.47,-54.22
2023/04/28 01:14:45+0000,-32.64,-41.73,-38.25,-42.15,-51.14,-53.87
2023/04/28 01:15:37+0000,-33.31,-41.24,-38.31,-41.81,-50.38,-54.34
2023/04/28 01:16:29+0000,-33.57,-39.64,-38.28,-42.87,-51.67,-53.80
2023/04/28 01:17:21+0000,-32.91,-40.97,-38.36,-40.97,-50.79,-53.81
2023/04/28 01:18:13+0000,-32.83,-40.82,-38.48,-41.22,-50.55,-53.11
2023/04/28 01:19:05+0000,-33.11,-41.06,-38.90,-41.30,-51.65,-53.58
2023/04/28 01:19:57+0000,-32.97,-41.45,-39.07,-39.31,-50.91,-54.06
2023/04/28 01:20:49+0000,-32.62,-41.32,-39.09,-39.80,-50.76,-53.45
2023/04/28 01:21:49+0000,-33.02,-41.45,-38.77,-40.83,-50.85,-53.69
2023/04/28 01:22:41+0000,-32.91,-41.96,-38.47,-40.85,-50.95,-54.06
2023/04/28 01:23:33+0000,-32.87,-41.26,-37.58,-39.68,-51.63,-54.15
2023/04/28 01:24:25+0000,-33.47,-43.40,-38.52,-40.19,-50.90,-53.93
2023/04/28 01:25:17+0000,-32.82,-42.92,-38.19,-40.28,-51.11,-53.56
2023/04/28 01:26:09+0000,-33.24,-42.39,-37.92,-41.84,-50.94,-53.76
2023/04/28 01:27:01+0000,-32.46,-43.89,-38.41,-42.56,-51.09,-53.49
2023/04/28 01:27:53+0000,-32.88,-43.10,-37.88,-38.89,-51.16,-53.27
2023/04/28 01:28:45+0000,-32.88,-42.27,-38.03,-39.77,-50.84,-53.46
2023/04/28 01:29:37+0000,-32.93,-42.78,-38.40,-41.39,-51.37,-53.79
2023/04/28 01:30:29+0000,-31.96,-42.62,-38.54,-41.89,-50.94,-54.02
2023/04/28 01:31:28+0000,-32.76,-42.53,-37.87,-42.37,-51.28,-53.36
2023/04/28 01:32:20+0000,-32.73,-41.59,-38.19,-43.34,-51.17,-53.79
2023/04/28 01:33:12+0000,-32.80,-42.57,-38.20,-42.16,-51.64,-53.99
2023/04/28 01:34:04+0000,-33.41,-41.44,-37.92,-43.04,-51.11,-53.80
2023/04/28 01:34:56+0000,-32.42,-40.77,-37.17,-41.92,-51.93,-53.88
2023/04/28 01:35:48+0000,-32.69,-40.88,-37.59,-39.78,-51.11,-53.61
2023/04/28 01:36:40+0000,-32.63,-39.61,-38.24,-40.44,-51.55,-53.86
2023/04/28 01:37:32+0000,-33.32,-41.31,-37.97,-40.66,-51.62,-54.08
2023/04/28 01:38:25+0000,-32.24,-40.69,-37.22,-39.79,-51.59,-54.50
2023/04/28 01:39:17+0000,-32.90,-40.81,-37.52,-40.07,-52.45,-54.02
2023/04/28 01:40:09+0000,-32.78,-39.71,-38.28,-40.09,-52.13,-53.43
2023/04/28 01:41:08+0000,-33.33,-40.40,-37.45,-40.64,-52.24,-54.15
2023/04/28 01:42:00+0000,-32.36,-42.11,-37.90,-42.52,-51.44,-54.05
2023/04/28 01:42:52+0000,-31.92,-41.10,-37.87,-42.64,-52.10,-53.66
2023/04/28 01:43:44+0000,-32.73,-42.07,-38.23,-42.90,-52.03,-54.04
2023/04/28 01:44:36+0000,-33.09,-40.30,-37.81,-43.20,-50.97,-53.51
2023/04/28 01:45:28+0000,-33.66,-40.06,-38.24,-42.94,-51.67,-53.89
2023/04/28 01:46:20+0000,-32.97,-40.65,-38.08,-42.29,-52.27,-53.42
2023/04/28 01:47:12+0000,-32.95,-40.89,-38.02,-42.59,-51.79,-53.74
2023/04/28 01:48:04+0000,-32.48,-40.53,-37.87,-41.55,-52.19,-53.88
2023/04/28 01:48:56+0000,-32.84,-41.71,-38.15,-41.37,-52.40,-54.10
2023/04/28 01:49:48+0000,-33.30,-41.00,-37.76,-41.57,-51.94,-54.13
2023/04/28 01:50:40+0000,-33.45,-41.66,-38.77,-42.36,-51.94,-53.47
2023/04/28 01:51:40+0000,-33.41,-42.67,-38.19,-42.42,-52.32,-53.91
2023/04/28 01:52:32+0000,-32.71,-41.97,-38.28,-41.62,-51.98,-53.78
2023/04/28 01:53:24+0000,-32.55,-43.12,-38.78,-42.17,-52.93,-53.53
2023/04/28 01:54:16+0000,-32.84,-43.07,-38.21,-42.47,-52.24,-54.19
2023/04/28 01:55:08+0000,-32.47,-43.21,-37.22,-41.61,-52.17,-54.00
2023/04/28 01:56:00+0000,-33.14,-43.91,-38.33,-43.56,-51.74,-53.95
2023/04/28 01:56:52+0000,-33.27,-43.54,-38.29,-42.06,-52.15,-54.11
2023/04/28 01:57:44+0000,-32.52,-43.61,-38.33,-42.08,-51.25,-53.93
2023/04/28 01:58:36+0000,-32.23,-43.83,-36.93,-42.34,-52.14,-53.70
2023/04/28 01:59:28+0000,-32.55,-43.78,-38.09,-42.28,-52.17,-53.86
2023/04/28 02:00:20+0000,-33.07,-43.67,-38.25,-42.20,-51.81,-53.88
2023/04/28 02:01:20+0000,-32.89,-44.02,-38.06,-42.69,-52.02,-53.40
2023/04/28 02:02:12+0000,-32.92,-42.80,-38.36,-41.52,-52.05,-54.05
2023/04/28 02:03:04+0000,-33.76,-44.00,-38.19,-42.97,-50.99,-54.10
2023/04/28 02:03:56+0000,-32.81,-43.27,-38.56,-42.88,-51.20,-53.90
2023/04/28 02:04:48+0000,-32.83,-42.88,-37.84,-43.44,-51.33,-53.83
2023/04/28 02:05:40+0000,-32.76,-43.13,-38.51,-42.48,-51.43,-54.43
2023/04/28 02:06:32+0000,-32.88,-41.99,-38.54,-42.66,-50.79,-54.52
2023/04/28 02:07:24+0000,-33.10,-41.02,-37.37,-41.95,-51.00,-53.23
2023/04/28 02:08:16+0000,-32.65,-43.16,-38.02,-42.32,-50.71,-53.80
2023/04/28 02:09:08+0000,-32.48,-42.46,-37.80,-41.00,-51.04,-54.65
2023/04/28 02:10:00+0000,-33.36,-40.62,-38.16,-42.99,-51.21,-53.69
2023/04/28 02:11:00+0000,-33.17,-40.78,-38.35,-42.93,-50.94,-54.07
2023/04/28 02:11:52+0000,-32.79,-42.45,-37.49,-42.58,-50.66,-53.67
2023/04/28 02:12:44+0000,-32.76,-41.82,-37.65,-42.57,-50.75,-54.49
2023/04/28 02:13:36+0000,-33.11,-41.28,-38.32,-41.78,-50.32,-54.06
2023/04/28 02:14:28+0000,-32.87,-41.18,-38.09,-42.87,-50.75,-53.86
2023/04/28 02:15:20+0000,-33.10,-41.07,-37.47,-43.26,-50.57,-54.57
2023/04/28 02:16:12+0000,-33.23,-41.25,-38.49,-42.53,-50.90,-54.01
2023/04/28 02:17:04+0000,-32.98,-41.28,-37.93,-43.47,-50.54,-54.20
2023/04/28 02:17:56+0000,-33.06,-42.31,-37.67,-42.27,-51.40,-53.61
2023/04/28 02:18:48+0000,-32.80,-42.78,-38.15,-42.15,-51.52,-54.51
2023/04/28 02:19:40+0000,-33.37,-41.78,-38.04,-41.82,-50.43,-54.05
2023/04/28 02:20:32+0000,-32.98,-42.41,-38.34,-42.85,-50.72,-54.50
2023/04/28 02:21:32+0000,-33.21,-42.99,-38.16,-41.78,-51.44,-54.37
2023/04/28 02:22:24+0000,-33.42,-42.28,-37.93,-43.28,-50.66,-53.54
2023/04/28 02:23:16+0000,-33.20,-41.89,-37.58,-41.60,-50.84,-54.26
2023/04/28 02:24:08+0000,-32.90,-42.60,-37.77,-42.73,-51.23,-54.29
2023/04/28 02:25:00+0000,-33.30,-41.73,-38.02,-42.44,-51.46,-54.43
2023/04/28 02:25:52+0000,-33.51,-42.50,-38.38,-42.52,-50.99,-53.41
2023/04/28 02:26:44+0000,-32.87,-42.84,-38.10,-41.95,-52.09,-54.16
2023/04/28 02:27:36+0000,-32.39,-42.08,-38.08,-42.90,-51.17,-53.90
2023/04/28 02:28:28+0000,-32.80,-42.11,-38.47,-41.74,-51.34,-53.77
2023/04/28 02:29:20+0000,-32.97,-42.78,-38.46,-42.49,-51.18,-53.48
2023/04/28 02:30:12+0000,-32.38,-44.32,-38.22,-41.61,-51.67,-53.53
2023/04/28 02:31:12+0000,-32.49,-43.83,-38.42,-41.96,-52.07,-54.17
2023/04/28 02:32:04+0000,-32.68,-42.53,-37.04,-42.19,-51.30,-53.70
2023/04/28 02:32:56+0000,-33.34,-43.65,-38.09,-42.87,-51.21,-53.10
2023/04/28 02:33:48+0000,-32.68,-43.52,-38.34,-42.45,-51.40,-54.18
2023/04/28 02:34:40+0000,-32.95,-41.96,-37.83,-42.99,-51.84,-54.30
2023/04/28 02:35:32+0000,-33.54,-44.08,-37.99,-42.22,-52.02,-54.23
2023/04/28 02:36:24+0000,-33.81,-42.36,-37.50,-42.25,-52.05,-54.37
2023/04/28 02:37:16+0000,-32.70,-42.57,-38.36,-42.09,-51.62,-53.91
2023/04/28 02:38:08+0000,-32.69,-42.58,-38.79,-42.26,-51.45,-53.86
2023/04/28 02:39:00+0000,-32.50,-42.33,-37.63,-41.58,-51.34,-53.83
2023/04/28 02:39:52+0000,-32.91,-42.33,-37.96,-42.37,-50.79,-54.66
2023/04/28 02:40:44+0000,-32.98,-42.40,-38.49,-42.09,-50.97,-54.05
2023/04/28 02:41:43+0000,-32.98,-42.33,-38.71,-42.75,-50.76,-53.64
2023/04/28 02:42:35+0000,-32.30,-43.16,-38.02,-42.63,-51.35,-54.44
2023/04/28 02:43:27+0000,-32.29,-41.98,-38.47,-42.85,-50.23,-53.98
2023/04/28 02:44:19+0000,-33.07,-42.97,-37.26,-42.13,-50.72,-54.14
2023/04/28 02:45:11+0000,-32.77,-43.29,-37.87,-39.99,-50.63,-54.27
2023/04/28 02:46:03+0000,-33.04,-42.69,-38.25,-41.67,-51.63,-54.21
2023/04/28 02:46:55+0000,-32.99,-42.78,-37.54,-42.62,-50.64,-53.69
2023/04/28 02:47:47+0000,-32.62,-42.72,-37.58,-42.15,-51.31,-53.39
2023/04/28 02:48:39+0000,-33.06,-43.26,-37.04,-42.10,-51.76,-54.11
2023/04/28 02:49:31+0000,-33.35,-42.37,-37.92,-42.80,-51.46,-54.18
2023/04/28 02:50:23+0000,-33.18,-44.18,-37.17,-42.21,-51.39,-53.88
2023/04/28 02:51:23+0000,-31.88,-43.96,-37.96,-41.22,-50.22,-53.86
2023/04/28 02:52:15+0000,-32.39,-43.52,-38.53,-42.07,-47.21,-53.59
2023/04/28 02:53:07+0000,-33.24,-43.82,-38.00,-41.99,-51.00,-54.28
2023/04/28 02:53:59+0000,-33.07,-44.20,-38.60,-41.40,-50.55,-54.79
2023/04/28 02:54:51+0000,-32.86,-44.10,-37.71,-41.67,-50.91,-54.25
2023/04/28 02:55:43+0000,-32.88,-44.46,-38.33,-41.48,-49.93,-53.67
2023/04/28 02:56:35+0000,-32.65,-44.17,-38.41,-42.65,-51.32,-53.62
2023/04/28 02:57:27+0000,-32.57,-44.05,-38.62,-42.07,-50.88,-53.74
2023/04/28 02:58:19+0000,-33.41,-43.67,-38.31,-42.14,-51.46,-54.30
2023/04/28 02:59:11+0000,-32.85,-44.08,-38.92,-42.32,-51.33,-54.10
2023/04/28 03:00:03+0000,-33.06,-43.75,-39.40,-41.74,-50.63,-53.99
2023/04/28 03:01:04+0000,-32.66,-42.69,-39.50,-41.83,-50.53,-54.07
2023/04/28 03:01:56+0000,-32.89,-42.52,-38.89,-39.31,-51.53,-53.79
2023/04/28 03:02:48+0000,-33.25,-43.81,-38.98,-39.51,-51.75,-53.85
2023/04/28 03:03:40+0000,-32.92,-42.63,-38.47,-38.17,-51.01,-54.50
2023/04/28 03:04:32+0000,-32.63,-42.35,-37.70,-40.66,-50.94,-54.28
2023/04/28 03:05:24+0000,-32.40,-41.75,-38.54,-41.01,-50.50,-54.37
2023/04/28 03:06:16+0000,-32.66,-43.55,-37.92,-40.60,-51.33,-54.17
2023/04/28 03:07:08+0000,-33.42,-43.18,-38.09,-41.96,-51.52,-54.13
2023/04/28 03:08:00+0000,-32.74,-42.51,-37.90,-40.55,-51.83,-54.14
2023/04/28 03:08:52+0000,-32.24,-43.05,-37.56,-42.51,-50.49,-53.87
2023/04/28 03:09:44+0000,-33.56,-42.99,-38.54,-40.66,-51.25,-54.56
2023/04/28 03:10:36+0000,-33.05,-43.65,-38.11,-42.12,-51.19,-54.95
2023/04/28 03:11:36+0000,-33.08,-43.46,-36.81,-41.36,-51.11,-54.05
2023/04/28 03:12:28+0000,-32.26,-42.33,-38.73,-42.79,-50.72,-55.02
2023/04/28 03:13:20+0000,-32.84,-42.74,-38.58,-39.98,-51.32,-54.53
2023/04/28 03:14:12+0000,-33.68,-43.68,-38.59,-40.84,-50.89,-53.80
2023/04/28 03:15:04+0000,-32.50,-42.45,-37.28,-40.33,-50.66,-54.04
2023/04/28 03:15:56+0000,-33.12,-41.75,-38.34,-39.42,-52.16,-54.00
2023/04/28 03:16:48+0000,-33.00,-42.71,-38.40,-40.44,-51.85,-54.08
2023/04/28 03:17:40+0000,-33.29,-42.07,-37.87,-40.30,-51.31,-54.14
2023/04/28 03:18:32+0000,-33.19,-41.65,-37.89,-42.41,-51.59,-53.99
2023/04/28 03:19:24+0000,-33.50,-40.77,-38.13,-42.50,-52.19,-53.93
2023/04/28 03:20:16+0000,-32.50,-41.95,-37.90,-42.39,-52.13,-54.46
2023/04/28 03:21:15+0000,-32.65,-41.52,-37.83,-41.29,-52.48,-54.07
2023/04/28 03:22:07+0000,-32.51,-42.85,-37.44,-41.69,-51.55,-53.89
2023/04/28 03:22:59+0000,-33.67,-42.30,-37.54,-42.05,-51.74,-54.29
2023/04/28 03:23:51+0000,-33.56,-43.15,-37.63,-42.33,-50.82,-54.60
2023/04/28 03:24:43+0000,-32.33,-41.13,-38.69,-42.05,-50.65,-53.78
2023/04/28 03:25:35+0000,-32.67,-41.88,-38.03,-42.27,-51.21,-54.32
2023/04/28 03:26:27+0000,-32.27,-41.86,-38.50,-41.89,-50.58,-54.16
2023/04/28 03:27:20+0000,-32.41,-41.17,-38.53,-42.61,-51.34,-53.63
2023/04/28 03:28:12+0000,-32.77,-42.02,-37.70,-40.98,-51.77,-54.02
2023/04/28 03:29:04+0000,-33.71,-42.30,-38.16,-42.03,-51.70,-54.26
2023/04/28 03:29:56+0000,-32.29,-41.60,-37.84,-42.46,-51.94,-53.52
2023/04/28 03:30:48+0000,-32.91,-42.71,-38.25,-41.93,-52.06,-53.32
2023/04/28 03:31:47+0000,-33.07,-41.73,-38.00,-40.68,-51.16,-53.74
2023/04/28 03:32:39+0000,-32.71,-42.38,-37.80,-42.08,-51.09,-54.28
2023/04/28 03:33:31+0000,-32.87,-41.32,-37.52,-41.81,-51.52,-53.85
2023/04/28 03:34:23+0000,-32.78,-43.03,-38.40,-42.20,-52.15,-54.08
2023/04/28 03:35:15+0000,-33.03,-41.44,-38.87,-41.00,-52.91,-54.54
2023/04/28 03:36:07+0000,-32.41,-42.45,-37.64,-39.44,-53.44,-54.36
2023/04/28 03:36:59+0000,-32.80,-41.35,-38.82,-41.39,-52.26,-53.80
2023/04/28 03:37:51+0000,-33.48,-42.95,-38.34,-40.26,-51.95,-52.46
2023/04/28 03:38:43+0000,-32.72,-41.62,-38.87,-40.66,-51.73,-52.89
2023/04/28 03:39:35+0000,-32.61,-42.11,-37.92,-42.72,-51.12,-53.88
2023/04/28 03:40:27+0000,-32.62,-41.71,-38.20,-41.87,-51.59,-53.22
2023/04/28 03:41:27+0000,-32.78,-42.06,-37.98,-43.00,-51.31,-53.76
2023/04/28 03:42:19+0000,-32.84,-42.46,-37.67,-42.21,-51.42,-54.00
2023/04/28 03:43:11+0000,-33.02,-41.68,-38.98,-40.52,-51.88,-54.00
2023/04/28 03:44:03+0000,-32.53,-41.81,-38.22,-41.48,-52.11,-54.41
2023/04/28 03:44:55+0000,-33.13,-42.18,-38.27,-42.15,-51.80,-53.58
2023/04/28 03:45:47+0000,-32.86,-42.85,-38.46,-39.78,-51.46,-53.69
2023/04/28 03:46:39+0000,-33.05,-42.04,-38.58,-42.18,-51.03,-53.75
2023/04/28 03:47:31+0000,-32.81,-41.65,-39.05,-38.59,-51.27,-53.89
2023/04/28 03:48:23+0000,-32.81,-42.71,-38.03,-38.85,-52.45,-53.39
2023/04/28 03:49:15+0000,-32.03,-42.06,-38.45,-40.27,-51.49,-53.87
2023/04/28 03:50:07+0000,-33.07,-42.66,-37.95,-39.34,-51.70,-53.36
2023/04/28 03:51:06+0000,-32.69,-41.98,-38.64,-40.97,-52.80,-53.33
2023/04/28 03:51:58+0000,-32.21,-42.39,-38.94,-40.24,-52.63,-53.66
2023/04/28 03:52:50+0000,-32.79,-41.74,-38.68,-42.45,-52.34,-53.28
2023/04/28 03:53:42+0000,-33.06,-41.92,-39.05,-42.42,-51.95,-53.30
2023/04/28 03:54:34+0000,-33.34,-42.49,-38.53,-42.31,-51.29,-53.49
2023/04/28 03:55:26+0000,-32.16,-41.68,-38.65,-43.04,-51.21,-54.31
2023/04/28 03:56:18+0000,-32.67,-41.98,-38.91,-42.82,-51.43,-54.13
2023/04/28 03:57:10+0000,-33.27,-42.42,-38.59,-42.72,-51.71,-54.01
2023/04/28 03:58:02+0000,-32.88,-40.78,-38.94,-42.79,-52.44,-53.91
2023/04/28 03:58:54+0000,-31.93,-42.17,-38.60,-42.08,-52.12,-53.84
2023/04/28 03:59:47+0000,-32.57,-41.96,-38.38,-42.93,-52.16,-53.56
2023/04/28 04:00:39+0000,-32.67,-43.14,-38.87,-42.74,-52.34,-53.33
2023/04/28 04:01:38+0000,-32.80,-40.81,-38.51,-42.33,-52.38,-52.94
2023/04/28 04:02:30+0000,-33.27,-41.76,-38.67,-41.36,-51.64,-53.62
2023/04/28 04:03:22+0000,-32.95,-41.82,-38.50,-42.41,-51.94,-53.78
2023/04/28 04:04:14+0000,-33.00,-41.77,-37.60,-42.36,-51.80,-53.96
2023/04/28 04:05:06+0000,-32.29,-42.07,-38.26,-42.09,-52.38,-54.20
2023/04/28 04:05:58+0000,-33.06,-41.95,-37.88,-43.43,-51.99,-53.82
2023/04/28 04:06:51+0000,-32.63,-43.03,-38.26,-42.56,-52.02,-54.22
2023/04/28 04:07:43+0000,-32.43,-42.15,-39.26,-43.09,-52.24,-53.62
2023/04/28 04:08:35+0000,-32.44,-43.19,-38.45,-42.82,-52.16,-53.81
2023/04/28 04:09:27+0000,-32.30,-42.18,-39.60,-42.48,-52.20,-53.90
2023/04/28 04:10:19+0000,-32.83,-41.48,-38.52,-42.55,-51.80,-53.84
2023/04/28 04:11:18+0000,-32.30,-42.49,-38.21,-43.08,-51.87,-53.39
2023/04/28 04:12:10+0000,-33.14,-44.66,-38.99,-42.44,-51.85,-53.44
2023/04/28 04:13:02+0000,-33.10,-42.69,-38.31,-42.94,-52.47,-54.18
2023/04/28 04:13:54+0000,-32.27,-43.81,-38.74,-43.29,-51.86,-54.15
2023/04/28 04:14:46+0000,-31.90,-43.11,-38.72,-41.83,-52.00,-53.95
2023/04/28 04:15:38+0000,-33.17,-44.03,-39.36,-42.94,-52.04,-53.61
2023/04/28 04:16:30+0000,-32.91,-45.37,-39.02,-43.19,-52.07,-54.62
2023/04/28 04:17:22+0000,-32.12,-45.54,-38.47,-43.09,-52.51,-54.06
2023/04/28 04:18:14+0000,-32.31,-44.81,-38.84,-43.45,-51.67,-53.70
2023/04/28 04:19:06+0000,-32.42,-44.78,-38.63,-43.14,-51.69,-53.91
2023/04/28 04:19:58+0000,-33.16,-44.60,-39.17,-44.20,-52.40,-53.87
2023/04/28 04:20:50+0000,-31.84,-45.60,-38.72,-43.59,-52.36,-54.04
2023/04/28 04:21:50+0000,-31.96,-44.22,-39.04,-43.44,-49.50,-51.81
2023/04/28 04:22:42+0000,-32.16,-43.43,-38.96,-42.90,-49.88,-50.74
2023/04/28 04:23:34+0000,-33.19,-43.76,-38.44,-40.77,-49.93,-51.19
2023/04/28 04:24:26+0000,-31.15,-44.09,-39.29,-41.37,-49.90,-51.92
2023/04/28 04:25:18+0000,-32.18,-43.44,-38.60,-41.62,-49.35,-51.86
2023/04/28 04:26:10+0000,-32.47,-42.27,-39.05,-41.63,-49.47,-51.53
2023/04/28 04:27:02+0000,-32.53,-44.50,-38.77,-41.17,-50.18,-51.96
2023/04/28 04:27:54+0000,-32.34,-44.19,-39.00,-41.68,-50.30,-52.19
2023/04/28 04:28:46+0000,-32.87,-44.29,-38.54,-40.72,-50.12,-52.35
2023/04/28 04:29:38+0000,-32.78,-44.25,-38.58,-40.90,-50.36,-52.84
2023/04/28 04:30:30+0000,-32.17,-44.11,-38.72,-42.80,-50.53,-51.90
2023/04/28 04:31:30+0000,-32.37,-43.90,-38.53,-42.93,-50.84,-52.44
2023/04/28 04:32:22+0000,-33.61,-45.48,-38.50,-43.08,-51.77,-52.50
2023/04/28 04:33:14+0000,-33.19,-44.27,-39.35,-42.19,-51.49,-52.65
2023/04/28 04:34:06+0000,-33.12,-45.01,-39.27,-44.52,-51.15,-52.46
2023/04/28 04:34:58+0000,-32.29,-43.68,-39.19,-43.25,-51.04,-52.15
2023/04/28 04:35:50+0000,-31.70,-44.85,-38.78,-42.81,-51.55,-52.26
2023/04/28 04:36:42+0000,-33.37,-42.06,-39.05,-41.40,-50.21,-52.63
2023/04/28 04:37:34+0000,-33.51,-44.34,-38.74,-41.33,-50.15,-51.04
2023/04/28 04:38:26+0000,-33.03,-44.16,-38.32,-43.78,-50.14,-51.73
2023/04/28 04:39:18+0000,-32.28,-43.98,-39.14,-40.74,-50.47,-52.20
2023/04/28 04:40:10+0000,-32.28,-44.09,-39.30,-39.60,-50.52,-52.29
2023/04/28 04:41:10+0000,-33.06,-43.08,-39.16,-39.36,-50.48,-52.37
2023/04/28 04:42:02+0000,-32.71,-43.02,-39.17,-49.55,-51.35,-52.35
2023/04/28 04:42:54+0000,-37.50,-43.59,-39.11,-49.99,-51.43,-52.44
2023/04/28 04:43:46+0000,-37.37,-44.45,-39.08,-49.78,-51.47,-52.31
2023/04/28 04:44:38+0000,-37.62,-45.64,-38.64,-50.78,-51.01,-52.95
2023/04/28 04:45:30+0000,-36.99,-44.15,-38.55,-50.69,-50.79,-52.12
2023/04/28 04:46:22+0000,-36.49,-44.91,-38.93,-51.27,-51.04,-52.77
2023/04/28 04:47:14+0000,-36.18,-43.80,-39.43,-51.04,-51.14,-52.49
2023/04/28 04:48:06+0000,-35.97,-45.45,-39.13,-51.78,-51.37,-52.63
2023/04/28 04:48:58+0000,-36.87,-44.60,-39.72,-51.63,-51.21,-53.03
2023/04/28 04:49:50+0000,-37.01,-43.72,-39.37,-53.06,-51.52,-53.44
2023/04/28 04:50:42+0000,-35.99,-43.07,-38.53,-53.03,-50.70,-53.58
2023/04/28 04:51:42+0000,-36.10,-43.16,-38.11,-52.72,-50.61,-53.80
2023/04/28 04:52:34+0000,-36.57,-44.46,-39.03,-53.52,-51.59,-53.13
2023/04/28 04:53:26+0000,-37.10,-44.87,-39.37,-52.75,-52.82,-53.63
2023/04/28 04:54:18+0000,-37.40,-43.19,-38.82,-52.83,-55.11,-53.17
2023/04/28 04:55:10+0000,-36.74,-43.92,-38.67,-52.68,-53.89,-52.90
2023/04/28 04:56:02+0000,-37.44,-43.27,-38.86,-53.06,-54.13,-53.50
2023/04/28 04:56:54+0000,-37.35,-45.12,-39.38,-53.94,-54.27,-53.31